| time (UTC) | temp C | wind direction | speed KPH | gust KPH | rain 1hr cm | rain 24hr cm | rain mn cm | humidity % | barometer mb |
| 20260504020040 | 16 | 8.0 | 32.2 | 0.00 | 0.03 | 0.00 | 69 | 1008.0 | |
| 20260504014537 | 16 | 12.9 | 29.0 | 0.00 | 0.61 | 0.00 | 68 | 1008.2 | |
| 20260504013037 | 16 | 12.9 | 27.4 | 0.00 | 0.61 | 0.00 | 67 | 1008.1 | |
| 20260504011535 | 16 | 12.9 | 27.4 | 0.00 | 0.61 | 0.00 | 67 | 1008.2 | |
| 20260504010041 | 17 | 9.7 | 16.1 | 0.00 | 0.61 | 0.00 | 65 | 1008.3 | |
| 20260504004533 | 17 | 6.4 | 17.7 | 0.00 | 0.76 | 0.00 | 65 | 1008.3 | |
| 20260504003030 | 16 | 6.4 | 16.1 | 0.00 | 0.76 | 0.00 | 65 | 1008.4 | |
| 20260504001527 | 16 | 8.0 | 20.9 | 0.00 | 0.76 | 0.00 | 67 | 1008.6 | |
| 20260504000025 | 16 | 6.4 | 16.1 | 0.00 | 0.76 | 0.00 | 68 | 1008.7 | |
| 20260503234527 | 16 | 3.2 | 16.1 | 0.00 | 0.86 | 0.00 | 70 | 1008.8 | |
| 20260503233019 | 15 | 9.7 | 22.5 | 0.00 | 0.86 | 0.00 | 72 | 1008.9 | |
| 20260503231519 | 14 | 1.6 | 4.8 | 0.00 | 0.86 | 0.00 | 74 | 1008.9 | |
| 20260503230019 | 14 | 0.0 | 8.0 | 0.00 | 0.86 | 0.00 | 75 | 1008.9 | |
| 20260503224511 | 13 | 1.6 | 6.4 | 0.00 | 0.86 | 0.00 | 79 | 1008.9 | |
| 20260503223010 | 12 | 0.0 | 3.2 | 0.00 | 0.86 | 0.00 | 82 | 1009.1 | |
| 20260503221504 | 11 | 0.0 | 3.2 | 0.00 | 0.86 | 0.00 | 84 | 1009.1 | |
| 20260503220004 | 10 | 0.0 | 3.2 | 0.00 | 0.86 | 0.00 | 85 | 1009.1 | |
| 20260503214503 | 10 | 0.0 | 3.2 | 0.00 | 0.86 | 0.00 | 86 | 1009.0 | |
| 20260503213002 | 10 | 0.0 | 3.2 | 0.00 | 0.86 | 0.00 | 86 | 1009.2 | |
| 20260503211502 | 10 | 0.0 | 4.8 | 0.00 | 0.86 | 0.00 | 85 | 1009.1 | |
| 20260503210001 | 10 | 0.0 | 1.6 | 0.00 | 0.86 | 0.00 | 84 | 1009.1 | |
| 20260503204621 | 10 | 0.0 | 1.6 | 0.00 | 0.86 | 0.00 | 83 | 1009.1 | |
| 20260503203114 | 10 | 0.0 | 4.8 | 0.00 | 0.86 | 0.00 | 83 | 1008.8 | |
| 20260503201559 | 10 | 0.0 | 0.0 | 0.00 | 0.86 | 0.00 | 82 | 1008.7 | |
| 20260503200059 | 11 | 0.0 | 3.2 | 0.00 | 0.86 | 0.00 | 80 | 1008.8 | |
| 20260503194556 | 11 | 0.0 | 3.2 | 0.00 | 0.86 | 0.00 | 80 | 1008.7 | |
| 20260503193055 | 10 | 0.0 | 9.7 | 0.00 | 0.86 | 0.00 | 84 | 1008.7 | |
| 20260503191603 | 8 | 1.6 | 4.8 | 0.00 | 0.86 | 0.00 | 87 | 1008.9 | |
| 20260503190051 | 9 | 0.0 | 1.6 | 0.00 | 0.86 | 0.00 | 85 | 1009.0 | |
| 20260503184604 | 10 | 0.0 | 1.6 | 0.00 | 0.86 | 0.00 | 80 | 1009.2 | |
| 20260503183047 | 11 | 0.0 | 3.2 | 0.00 | 0.86 | 0.00 | 79 | 1009.2 | |
| 20260503181544 | 11 | 0.0 | 1.6 | 0.00 | 0.86 | 0.00 | 79 | 1009.2 | |
| 20260503180043 | 11 | 0.0 | 1.6 | 0.00 | 0.86 | 0.00 | 79 | 1009.3 | |
| 20260503174553 | 11 | 0.0 | 3.2 | 0.00 | 0.86 | 0.00 | 80 | 1009.5 | |
| 20260503173040 | 11 | 0.0 | 3.2 | 0.00 | 0.86 | 0.00 | 80 | 1009.5 | |
| 20260503171539 | 10 | 0.0 | 3.2 | 0.00 | 0.86 | 0.00 | 81 | 1009.6 | |
| 20260503100108 | 12 | 0.0 | 0.0 | 0.00 | 0.86 | 0.86 | 84 | 1010.7 | |
| 20260503090104 | 13 | 0.0 | 1.6 | 0.00 | 0.86 | 0.86 | 82 | 1010.3 | |
| 20260503081557 | 14 | 0.0 | 1.6 | 0.00 | 0.86 | 0.86 | 77 | 1009.2 | |
| 20260503071606 | 16 | 0.0 | 8.0 | 0.00 | 0.86 | 0.86 | 69 | 1008.7 | |
| 20260503054555 | 18 | 9.7 | 20.9 | 0.00 | 0.86 | 0.86 | 63 | 1008.8 | |
| 20260503053042 | 18 | 6.4 | 17.7 | 0.00 | 0.86 | 0.86 | 63 | 1008.7 | |
| 20260503051548 | 18 | 6.4 | 16.1 | 0.00 | 0.86 | 0.86 | 64 | 1008.7 | |
| 20260503050041 | 18 | 11.3 | 17.7 | 0.00 | 0.86 | 0.86 | 63 | 1008.8 | |
| 20260503044539 | 18 | 6.4 | 17.7 | 0.00 | 0.86 | 0.86 | 68 | 1008.6 | |
| 20260503043038 | 17 | 8.0 | 16.1 | 0.00 | 0.86 | 0.86 | 76 | 1008.5 | |
| 20260503041538 | 15 | 6.4 | 14.5 | 0.00 | 0.86 | 0.86 | 90 | 1008.6 | |
| 20260503040037 | 15 | 8.0 | 14.5 | 0.00 | 0.86 | 0.86 | 94 | 1008.6 | |
| 20260503034543 | 15 | 3.2 | 6.4 | 0.00 | 0.86 | 0.86 | 96 | 1008.7 | |
| 20260503033050 | 15 | 1.6 | 6.4 | 0.00 | 0.86 | 0.86 | 96 | 1008.8 | |
| 20260503031538 | 15 | 0.0 | 6.4 | 0.00 | 0.86 | 0.86 | 97 | 1008.8 | |
| 20260503030037 | 15 | 3.2 | 6.4 | 0.03 | 0.86 | 0.86 | 96 | 1008.8 | |
| 20260503024544 | 15 | 3.2 | 9.7 | 0.05 | 0.86 | 0.86 | 97 | 1008.8 | |
| 20260503023033 | 14 | 4.8 | 9.7 | 0.30 | 0.86 | 0.86 | 97 | 1008.9 | |
| 20260503021535 | 13 | 1.6 | 3.2 | 0.56 | 0.86 | 0.86 | 97 | 1009.2 |